Location: ?ern� Novina
(50.6762°N, 14.8696°E)
Time: 01:14:11
(UTC+00:00)

Cosmos 1461 - Pass Details

Date: 03 March 2021
Orbit: 505 x 659 km, 65.0° (Epoch: 13 April)

Event Time Altitude Azimuth Distance (km) Brightness Sun altitude
Rises 17:30:07 0° 220° (SW) 2,965 7.2 -7.9°
Reaches altitude 10° 17:32:25 10° 220° (SW) 2,066 6.4 -8.2°
Maximum altitude 17:37:08 87° 310° (NW) 668 3.2 -9.0°
Drops below altitude 10° 17:41:53 10° 40° (NE) 2,074 5.4 -9.7°
Enters shadow 17:44:04 - 41° (NE) 2,927 6.1 -10.1°
